Location: Brussel
(50.8333°N, 4.3333°E)
Time: 09:33:24
(UTC+00:00)

Daily predictions for brighter satellites

Satellite Brightness Start Highest point End
(mag) Time Altitude Azimuth Time Altitude Azimuth Time Altitude Azimuth
SL-16 R/B 2.7 16:15:28 10° NNE 16:21:44 64° ESE 16:27:54 10° S
Thor Agena Rocket 3.6 16:17:52 10° SSE 16:23:03 62° ENE 16:28:16 10° N
Cosmos 2344 4.2 16:20:05 10° NW 16:26:57 39° NNE 16:35:15 10° E
CZ-4C R/B 2.6 16:26:13 10° WSW 16:30:39 49° NW 16:36:24 10° NE
ATLAS 2AS CENTAUR R/B 3.7 16:26:02 10° NW 16:31:56 29° N 16:37:44 10° ENE
Cosmos 2263 Rocket 4.3 16:29:34 10° WNW 16:32:50 16° NNW 16:36:07 10° N
UNK 4.2 16:30:12 10° NNE 16:34:36 41° E 16:38:57 10° S
Cosmos 1844 Rocket 3.9 16:29:29 10° WSW 16:34:38 37° NW 16:39:49 10° NNE
Cosmos 1459 Rocket 4.3 16:30:00 10° SSW 16:36:17 75° W 16:42:42 10° N
YAOGAN 1 4.1 16:33:56 10° E 16:36:24 15° ENE 16:38:50 10° NNE
COSMOS 2406 4.3 16:36:21 10° NNW 16:41:01 25° NE 16:45:40 10° E
Cosmos 2084 Rocket 3.4 16:37:46 10° SW 16:41:57 82° SE 16:46:10 10° NE
ATLAS CENTAUR R/B 2.4 16:41:23 10° W 16:44:29 30° NW 16:47:34 10° NNE
Cosmos 1441 Rocket 3.8 16:42:15 10° NNW 16:45:32 52° W 16:48:48 10° S
Cosmos 1833 Rocket 3.2 16:40:49 10° NW 16:46:26 66° WSW 16:52:00 10° SSE
SAR-Lupe-4 3.6 16:43:13 10° SSE 16:46:44 55° ENE 16:50:14 10° N
ARIANE 5 R/B 2.5 16:42:31 10° SSE 16:47:24 60° ENE 16:52:21 10° N
USA 215 3.6 16:48:11 10° SE 16:54:43 73° SW 17:01:17 10° WNW
Timation 1 Rocket 4.3 16:48:55 10° NNW 16:54:53 66° NE 17:00:49 10° SE
IRS-P3 4.2 16:53:00 10° SE 16:58:11 55° ENE 17:03:24 10° N
ATLAS 5 CENTAUR R/B 2.9 16:56:07 10° NW 17:00:18 47° SW 17:05:26 10° SSE
MOS 1 Rocket 3.5 16:56:15 10° SE 17:00:19 41° ENE 17:04:34 10° N
Resurs 01 Rocket 3.4 17:08:57 14° NE 17:08:57 14° NE 17:10:45 10° NNE
SJ-6F 4.3 17:04:55 10° SSE 17:08:45 56° ENE 17:12:37 10° N
RESURS DK-1 2.2 17:05:01 10° NNW 17:09:03 81° ENE 17:13:02 10° SE
Cosmos 2233 Rocket 4.1 17:02:45 10° S 17:09:04 88° W 17:15:27 10° N
Cosmos 1602 3.9 17:06:27 10° N 17:09:14 30° ENE 17:12:00 10° SE
Cosmos 407 Rocket 3.7 17:05:07 10° S 17:10:06 51° ESE 17:15:05 10° NNE
Cosmos 2061 Rocket 4.0 17:05:17 10° S 17:11:35 88° E 17:17:51 10° N
Geosat FO 4.0 17:12:30 10° SE 17:15:19 55° NE 17:18:10 10° NNW
ISS -2.9 17:12:29 10° SW 17:15:36 37° SSE 17:17:12 22° E
Cosmos 1782 Rocket 3.9 17:11:25 10° SSW 17:15:50 68° WNW 17:20:16 10° N
CZ-2D R/B 2.8 17:13:26 10° S 17:16:35 80° WSW 17:19:46 10° NNW
Cosmos 1869 3.0 17:14:05 10° S 17:17:33 58° E 17:21:01 10° NNE
ERS-1 4.5 17:13:26 10° SSE 17:18:36 89° ENE 17:23:43 10° NNW
USA 281 4.2 17:15:06 16° E 17:18:48 27° NE 17:24:06 10° NNW
SPOT 1/Viking Rocket 3.7 17:14:23 10° SE 17:19:21 50° ENE 17:24:22 10° N
Cosmos 1300 Rocket 4.3 17:15:44 10° SSW 17:20:02 56° WNW 17:24:22 10° N
COSMO-SKYMED 1 3.5 17:21:26 23° ENE 17:22:12 24° E 17:25:33 10° SSE
SJ-12 3.9 17:19:37 10° S 17:23:24 73° WSW 17:27:13 10° NNW
Cosmos 1464 Rocket 4.3 17:19:13 10° SSE 17:25:03 42° E 17:30:50 10° NNE
AQUARIUS 4.1 17:22:47 10° SSE 17:27:13 86° W 17:31:39 10° NNW
SL-12 R/B(2) 4.4 17:20:12 10° SSW 17:28:06 67° SE 17:36:59 13° NE
Cosmos 540 Rocket 3.5 17:23:51 10° NNW 17:29:00 81° WSW 17:34:07 10° SSE
BREEZE-M DEB (TANK) 2.7 17:27:21 10° SW 17:29:49 48° SSE 17:32:21 23° E
Cosmos 1400 Rocket 3.6 17:28:19 10° SSE 17:31:12 27° ESE 17:31:12 27° ESE
Cosmos 1975 Rocket 4.0 17:28:01 10° NNW 17:32:14 50° W 17:36:27 10° S
Spot 4 Rocket 4.0 17:28:11 10° SE 17:33:09 55° ENE 17:38:08 10° N
Cosmos 1763 Rocket 4.0 17:29:17 10° NNW 17:34:28 64° WSW 17:39:32 10° S
Cosmos 1812 1.8 17:34:02 10° S 17:36:54 62° E 17:37:34 45° NE
Cosmos 2034 Rocket 4.5 17:32:47 10° SSE 17:38:20 36° E 17:43:57 10° NNE
Cosmos 1140 Rocket 4.2 17:37:02 10° SW 17:42:05 52° WNW 17:47:08 10° NNE
Cosmos 2151 Rocket 3.8 17:37:52 10° SSE 17:42:10 47° E 17:45:29 16° NNE
Cosmos 2058 2.6 17:38:21 10° N 17:42:21 79° E 17:46:19 10° SSE
Cosmos 44 Rocket 3.3 17:40:10 10° SSW 17:44:52 60° SE 17:47:06 31° ENE
SKYMED 2 3.5 17:45:23 14° NNE 17:49:00 61° E 17:53:18 10° S
Cosmos 1943 Rocket 2.1 17:44:17 10° SSW 17:49:54 84° ESE 17:54:09 18° NNE
Helios 1A Rocket 3.7 17:51:57 27° SSE 17:51:57 27° SSE 17:53:49 10° S
Cosmos 1092 Rocket 4.4 17:45:00 10° N 17:50:51 39° ENE 17:54:59 18° SE
Okean 1 Rocket 3.5 17:48:00 10° SSE 17:51:43 38° ESE 17:51:43 38° ESE
SJ-7 4.0 17:48:33 10° SSE 17:52:13 70° ENE 17:55:54 10° N
CZ-2D R/B 3.4 17:48:04 10° SSE 17:52:13 88° ENE 17:56:28 10° NNW
IRAS Rocket 4.1 17:47:06 10° SSE 17:52:40 79° ENE 17:58:13 10° NNW
Sich 1 Rocket 4.0 17:48:52 10° SSE 17:53:07 41° E 17:53:28 40° E
Cosmos 2082 Rocket 2.2 17:47:34 10° NNW 17:53:13 83° WSW 17:58:49 10° SSE
PSLV R/B 3.2 17:49:47 10° SSE 17:53:48 66° ENE 17:57:48 10° N
Cosmos 2026 Rocket 4.1 17:51:37 10° N 17:57:28 47° ENE 18:03:21 10° SE
Cosmos 1072 Rocket 4.3 17:52:02 10° S 17:58:09 75° E 18:04:16 10° NNE
Cosmos 2278 Rocket 2.1 17:53:00 10° SSW 17:58:41 89° WNW 18:02:47 20° NNE
NOAA 6 4.0 17:55:29 10° SSE 18:00:33 62° ENE 18:05:38 10° N
BREEZE-M DEB (TANK) 3.5 17:58:42 10° SW 18:01:36 53° SSE 18:03:16 37° E
Aureole 3 Rocket 2.7 17:58:38 10° SSW 18:01:38 60° WNW 18:03:12 26° N
BREEZE-M DEB (TANK) 3.0 17:59:47 10° WSW 18:02:28 77° SSE 18:04:09 40° ENE
SL-16 R/B 4.2 17:59:33 10° N 18:04:55 31° WNW 18:10:15 10° WSW
Geosat 3.9 18:04:10 33° SE 18:06:19 66° NE 18:11:19 10° NNW
Cosmos 2251 Rocket 3.4 18:04:11 10° SSW 18:09:28 86° ESE 18:12:38 25° NNE
YAOGAN 1 2.5 18:07:25 10° SSE 18:11:40 80° WSW 18:15:58 10° NNW
Cosmos 371 Rocket 3.4 18:08:24 10° S 18:12:52 52° ESE 18:12:52 52° ESE
Cosmos 304 Rocket 3.8 18:09:31 10° S 18:13:57 55° ESE 18:13:57 55° ESE
Cosmos 841 Rocket 3.4 18:08:57 10° NNW 18:14:15 82° ENE 18:17:15 26° SSE
SJ 16-02 1.1 18:11:23 10° SSW 18:15:40 72° ESE 18:15:41 72° ESE
SL-19 R/B 4.1 18:10:42 10° SSE 18:15:55 79° WSW 18:21:11 10° NNW
Nadezhda 4 Rocket 4.1 18:13:16 10° NNW 18:19:34 77° W 18:25:47 10° S
CZ-4C R/B 3.7 18:15:53 10° WNW 18:20:19 26° N 18:22:35 21° NNE
ATLAS CENTAUR R/B 3.7 18:19:44 10° NNW 18:20:32 11° NNW 18:20:45 11° NNW
Cosmos 1862 4.0 18:18:27 10° NNW 18:21:58 48° W 18:25:29 10° S
Resurs 1-3 3.9 18:19:25 10° S 18:23:40 66° WSW 18:27:59 10° NNW
ATLAS 2AS CENTAUR R/B 2.8 18:17:36 10° NW 18:24:16 54° NE 18:25:35 47° ENE
COSMOS 2406 3.2 18:20:17 10° NNW 18:26:00 83° WSW 18:29:07 28° SSE
Cosmos 1627 Rocket 4.3 18:21:55 10° N 18:28:04 72° ENE 18:34:13 10° SSE
Cosmos 1656 Rocket 4.2 18:24:33 10° S 18:28:33 40° SSE 18:28:33 40° SSE
Cosmos 2195 Rocket 4.5 18:27:08 10° N 18:33:29 87° W 18:39:49 10° S
Okean 2 Rocket 3.3 18:32:38 10° SSW 18:37:00 66° WNW 18:37:52 52° NNW
Cosmos 1190 Rocket 4.3 18:35:10 10° SW 18:40:25 66° WNW 18:42:26 37° N
Cosmos 2344 3.8 18:34:32 10° NW 18:42:22 89° NE 18:47:32 33° SE
Cosmos 676 Rocket 3.9 18:37:58 10° SSW 18:43:15 87° SE 18:43:15 87° SE
Resurs 01 Rocket 3.0 18:46:23 29° NNW 18:46:23 29° NNW 18:48:35 10° NNW
Meteor 2-3 Rocket 3.8 18:39:41 10° NNW 18:45:25 76° W 18:49:59 16° S
Cosmos 2297 Rocket 4.3 18:46:36 10° N 18:48:17 14° N 18:48:17 14° N
ISS -1.2 18:48:51 10° W 18:50:07 21° W 18:50:07 21° W
Cosmos 1954 Rocket 4.3 18:48:09 10° SW 18:53:23 63° WNW 18:54:18 53° NNW
COSMO-SKYMED 1 3.7 18:57:48 40° WNW 18:57:48 40° WNW 19:01:31 10° SW
USA 281 3.0 19:02:00 76° SE 19:02:35 86° ENE 19:09:13 10° NNW
Cosmos 1943 Rocket 4.0 19:29:46 10° W 19:34:19 25° NW 19:35:40 22° NNW
Cosmos 2278 Rocket 4.1 19:39:04 10° W 19:43:33 23° NW 19:44:37 22° NNW
SJ 16-02 4.3 19:51:20 10° W 19:52:17 14° W 19:52:17 14° W
CZ-4C R/B 4.3 20:05:04 10° NW 20:07:32 22° NNW 20:07:32 22° NNW
ATLAS 2AS CENTAUR R/B 3.9 20:08:43 10° NW 20:13:01 37° WNW 20:13:01 37° WNW
